Overview Statistics Trail Chart Weather Telemetry Raw packets
 

This is the latest recevied weather packets stored in our database for station/object MeshWX-1. If no packets are shown the sender has not sent any weather packets the latest 10 day(s).

<< 3 4 5 6 7 8 9 >>
Time Temp. Humidity Pressure Rain* Wind** Luminosity Snow
1788503203 29.44° C 33% 1000.4 hPa - - - -
1788502902 29.44° C 33% 1000.4 hPa - - - -
1788501392 29.44° C 33% 1000.4 hPa - - - -
1788501332 26.11° C 38% 1000.4 hPa - - - -
1788501163 26.11° C 38% 1000.4 hPa - - - -
1788500862 26.11° C 38% 1000.4 hPa - - - -
1788499430 26.11° C 38% 1000.4 hPa - - - -
1788499182 21.67° C 44% 1000.4 hPa - - - -
1788498882 21.67° C 44% 1000.4 hPa - - - -
1788497486 21.67° C 44% 1000.4 hPa - - - -
1788497420 18.89° C 46% 1000 hPa - - - -
1788497202 18.89° C 46% 1000 hPa - - - -
1788496901 18.89° C 46% 1000 hPa - - - -
1788495524 18.89° C 46% 1000 hPa - - - -
1788495222 20.56° C 43% 999.6 hPa - - - -
1788494921 20.56° C 43% 999.6 hPa - - - -
1788493526 20.56° C 43% 999.6 hPa - - - -
1788493493 21.11° C 42% 999.1 hPa - - - -
1788493182 21.11° C 42% 999.1 hPa - - - -
1788492881 21.11° C 42% 999.1 hPa - - - -
1788491599 21.11° C 42% 999.1 hPa - - - -
1788491201 21.67° C 41% 999 hPa - - - -
1788490901 21.67° C 41% 999 hPa - - - -
1788489655 21.67° C 41% 999 hPa - - - -
1788489641 21.67° C 41% 998.7 hPa - - - -

* Rain since midnight (hover to see other rain measurements)
** Current wind speed in m/s (hover to see current wind gust speed)